This demonstration page uses our WeatherBlox Daily Observations layout. Learn more.

Left ArrowRight Arrow

39.92423, -83.80882

Hourly Observations for July 26, 2020

Temp ( °F °C ) Dew Point ( °F °C ) Humidity (%) Winds ( mph kmh ) Pressure ( in mb ) Visibility ( mi km ) Precip ( " mm )
12:56 am 00:56 Clear 68 20 68 20 100 100 N N/A 30.11 1020 10 16 N/A
1:56 am 01:56 Clear 67 19.4 67 19.4 100 100 N N/A 30.11 1020 10 16 N/A
2:56 am 02:56 Clear 67 19.4 67 19.4 100 100 SW 3 6 30.11 1020 9 14 N/A
3:56 am 03:56 Clear 65 18.3 65 18.3 100 100 N N/A 30.11 1020 7 11 N/A
4:56 am 04:56 Clear with Mist and Fog 65 18.3 65 18.3 100 100 N N/A 30.10 1019 3 5 N/A
5:56 am 05:56 Clear with Mist and Fog 64 17.8 64 17.8 100 100 N N/A 30.11 1020 6 10 N/A
6:56 am 06:56 Sunny 63 17.2 63 17.2 100 100 N N/A 30.12 1020 9 14 N/A
7:56 am 07:56 Sunny 70 21.1 70 21.1 100 100 N N/A 30.12 1020 10 16 N/A
8:56 am 08:56 Sunny 75 23.9 71 21.7 88 88 SW 5 7 30.12 1020 10 16 N/A
9:48 am 09:48 Mostly Cloudy 77 25 72 22 83 83 WSW 7 11 30.09 1019 10 16 N/A
9:56 am 09:56 Mostly Cloudy 78 25.6 71 21.7 79 79 W 7 11 30.12 1020 10 16 N/A
10:56 am 10:56 Partly Cloudy 81 27.2 72 22.2 74 74 W 6 9 30.12 1020 10 16 N/A
11:32 am 11:32 Mostly Cloudy 82 28 72 22 70 70 W 9 15 30.09 1019 10 16 N/A
11:49 am 11:49 Partly Cloudy 82 28 73 23 74 74 W 12 19 30.09 1019 10 16 N/A
11:56 am 11:56 Mostly Cloudy 83 28.3 72 22.2 70 70 W 13 20 30.12 1020 10 16 N/A
12:09 pm 12:09 Mostly Cloudy 82 28 73 23 74 74 W 12 19 30.08 1019 10 16 N/A
12:56 pm 12:56 Partly Cloudy 85 29.4 72 22.2 65 65 WNW 9 15 30.12 1020 10 16 N/A
1:56 pm 13:56 Partly Cloudy 87 30.6 72 22.2 61 61 WNW 9 15 30.10 1019 10 16 N/A
2:56 pm 14:56 Mostly Sunny 88 31.1 71 21.7 57 57 WNW 10 17 30.08 1019 10 16 N/A
3:56 pm 15:56 Mostly Sunny 89 31.7 70 21.1 53 53 WNW 10 17 30.06 1018 10 16 N/A
4:56 pm 16:56 Sunny 89 31.7 69 20.6 52 52 W 7 11 30.05 1018 10 16 N/A
5:56 pm 17:56 Sunny 89 31.7 69 20.6 52 52 NW 8 13 30.03 1017 10 16 N/A
6:56 pm 18:56 Sunny 88 31.1 69 20.6 54 54 N N/A 30.02 1017 10 16 N/A
7:56 pm 19:56 Sunny 84 28.9 73 22.8 70 70 SSW 3 6 30.01 1016 10 16 N/A
8:56 pm 20:56 Clear 79 26.1 73 22.8 82 82 W 5 7 30.01 1016 10 16 N/A
9:56 pm 21:56 Clear 75 23.9 71 21.7 88 88 SW 3 6 30.02 1017 10 16 N/A
10:56 pm 22:56 Clear 73 22.8 71 21.7 94 94 SSE 5 7 30.02 1017 10 16 N/A
11:56 pm 23:56 Clear 72 22.2 71 21.7 97 97 SSW 3 6 30.01 1016 10 16 N/A

Powered by AerisWeather